{"data":{"norad_id":82453,"epoch":"2026-09-18T08:53:52.853568Z","epoch_age_seconds":198636,"freshness":"STALE","line1":"1 82453U          26261.37075062  .00000012  00000+0  42437-3 0  9994","line2":"2 82453 102.2144 223.0300 0094446  51.8153 309.1371 12.39730648580716","mean_motion":12.39730648,"eccentricity":0.0094446,"inclination_deg":102.2144,"raan_deg":223.03,"arg_perigee_deg":51.8153,"mean_anomaly_deg":309.1371,"bstar":0.00042437,"rev_number":58071,"period_min":116.15426321218,"perigee_km":1433.2661532291,"apogee_km":1582.2241584471,"semimajor_km":7885.8821558381,"source":"CELESTRAK","updated_at":"2026-09-20T09:00:32.434867Z"}}